Voltar ao catálogo

GRIFON-3

AtivoCiênciaSSO
NORAD 67282·PAYLOAD·🇷🇺 Russia
Este nome de satélite ainda não foi confirmado por fontes oficiais.

Lançado Dec 28, 2025 de Vostochny Cosmodrome

Loading…

Próximas Passagens (próximas 24 horas)

TLE

AtualizadoSource: Space-Track

Época: Sep 14, 2026, 11:20 UTC

1 67282U 25313AL  26257.47289378  .00004170  00000-0  17511-3 0  9999
2 67282  97.3856 330.8577 0012007  50.6832 309.5468 15.23939382 39554

Acompanhe GRIFON-3 em tempo real com AllMySat

Download on the App Store